This demonstration page uses our WeatherBlox Daily Observations layout. Learn more.

Left ArrowRight Arrow

Hourly Observations for July 22, 2018

Temp ( °F °C ) Dew Point ( °F °C ) Humidity (%) Winds ( mph kmh ) Pressure ( in mb ) Visibility ( mi km ) Precip ( " mm )
12:51 am 00:51 Clear 84 28.9 60 15.6 44 44 WNW 13 20 29.85 1011 10 16.0934 N/A
1:51 am 01:51 Clear 83 28.3 60 15.6 46 46 NW 12 19 29.85 1011 10 16.0934 N/A
2:51 am 02:51 Clear 82 27.8 60 15.6 47 47 NW 9 15 29.85 1011 10 16.0934 N/A
3:51 am 03:51 Clear 80 26.7 60 15.6 51 51 WNW 12 19 29.86 1011 10 16.0934 N/A
4:51 am 04:51 Clear 79 26.1 60 15.6 52 52 WNW 9 15 29.87 1012 10 16.0934 N/A
5:51 am 05:51 Sunny 79 26.1 59 15 50 50 NNW 6 9 29.89 1012 10 16.0934 N/A
6:51 am 06:51 Sunny 85 29.4 59 15 42 42 NW 9 15 29.89 1012 10 16.0934 N/A
7:51 am 07:51 Sunny 88 31.1 58 14.4 36 36 WNW 13 20 29.9 1012 10 16.0934 N/A
8:51 am 08:51 Sunny 91 32.8 57 13.9 32 32 WNW 15 24 29.88 1012 10 16.0934 N/A
9:51 am 09:51 Sunny 94 34.4 57 13.9 29 29 WNW 15 24 29.87 1012 10 16.0934 N/A
10:51 am 10:51 Sunny 97 36.1 55 12.8 24 24 W 15 24 29.86 1011 10 16.0934 N/A
11:51 am 11:51 Sunny 99 37.2 53 11.7 21 21 W 10 17 29.84 1010 10 16.0934 N/A
12:51 pm 12:51 Sunny 102 38.9 51 10.6 18 18 W 13 20 29.81 1010 10 16.0934 N/A
1:51 pm 13:51 Sunny 103 39.4 48 8.9 16 16 W 9 15 29.79 1009 10 16.0934 N/A
2:51 pm 14:51 Sunny 106 41.1 50 10 15 15 WNW 12 19 29.76 1008 10 16.0934 N/A
3:51 pm 15:51 Sunny 106 41.1 49 9.4 15 15 WNW 15 24 29.74 1007 10 16.0934 N/A
4:51 pm 16:51 Sunny 105 40.6 48 8.9 15 15 WNW 20 31 29.73 1007 10 16.0934 N/A
5:51 pm 17:51 Sunny 101 38.3 46 7.8 15 15 WNW 20 31 29.73 1007 10 16.0934 N/A
6:51 pm 18:51 Sunny 99 37.2 47 8.3 17 17 WNW 18 30 29.73 1007 10 16.0934 N/A
7:51 pm 19:51 Clear 95 35 48 8.9 20 20 WNW 14 22 29.75 1008 10 16.0934 N/A
8:51 pm 20:51 Clear 93 33.9 48 8.9 21 21 NW 14 22 29.78 1008 10 16.0934 N/A
9:51 pm 21:51 Clear 92 33.3 48 8.9 22 22 NW 17 28 29.79 1009 10 16.0934 N/A
10:51 pm 22:51 Clear 90 32.2 48 8.9 24 24 NW 14 22 29.8 1009 10 16.0934 N/A
11:51 pm 23:51 Clear 90 32.2 48 8.9 24 24 NW 15 24 29.79 1009 10 16.0934 N/A

Powered by AerisWeather